Weather History for Merced, CA

Change the Weather History Date:

Friday, January 3, 2014

  Actual Average Record
Temperature  
Mean Temperature 47 °F 44 °F  
Max Temperature 61 °F 51 °F 64 °F (2008)
Min Temperature 33 °F 36 °F 28 °F (2007)
Degree Days  
Heating Degree Days 18    
Month to date heating degree days 52  
Since 1 July heating degree days 1155  
Cooling Degree Days 0    
Month to date cooling degree days 0  
Year to date cooling degree days 0  
Moisture  
Dew Point 32 °F    
Average Humidity 59    
Maximum Humidity 82    
Minimum Humidity 36    
Precipitation  
Precipitation 0.00 in 0.11 in 0.28 in (2005)
Month to date precipitation 0.00 0.34  
Year to date precipitation 0.00 0.34  
Since 1 July precipitation 1.01 4.16  
Snow  
Snow 0.00 in - - ()
Month to date snowfall 0.0  
Since 1 July snowfall 0.0  
Snow Depth 0.00 in    
Sea Level Pressure  
Sea Level Pressure 30.03 in    
Wind  
Wind Speed 2 mph (ESE)    
Max Wind Speed 6 mph    
Max Gust Speed 9 mph    
Visibility 6 miles    
Events      
T = Trace of Precipitation, MM = Missing Value Source: NWS Daily Summary

Daily Weather History Graph

Daily Weather History Graph

Search for Another Location

Airport:

Trip Planner

Search our weather history database for the weather conditions in past years. The results will help you decide how hot, cold, wet, or windy it might be!

Date:

Astronomy

Jan. 03, 2014 Rise Set
Actual Time 7:16 AM PST 4:57 PM PST
Civil Twilight 6:47 AM PST 5:26 PM PST
Nautical Twilight 6:14 AM PST 5:58 PM PST
Astronomical Twilight 5:43 AM PST 6:30 PM PST
Moon 8:49 AM PST (1/3) 8:07 PM PST (1/3)
Length of Visible Light 10h 38m
Length of Day
9h 40m
Waxing Crescent, 8% of the Moon is Illuminated
Jan 3
Waxing Crescent
Jan 7
First Quarter
Jan 15
Full
Jan 23
Last Quarter
Jan 30
New

Hourly Weather History & Observations

Time (PST) Temp. Windchill Dew Point Humidity Pressure Visibility Wind Dir Wind Speed Gust Speed Precip Events Conditions
12:53 AM 39.0 °F 36.8 °F 30.0 °F 70% 30.08 in 7.0 mi East 3.5 mph - N/A   Clear
1:53 AM 37.9 °F 33.5 °F 30.0 °F 73% 30.07 in 8.0 mi East 5.8 mph - N/A   Clear
2:53 AM 35.1 °F 32.2 °F 28.9 °F 78% 30.08 in 8.0 mi NW 3.5 mph - N/A   Clear
3:53 AM 33.1 °F - 26.1 °F 75% 30.07 in 8.0 mi Calm Calm - N/A   Clear
4:53 AM 36.0 °F 33.3 °F 28.9 °F 76% 30.05 in 8.0 mi East 3.5 mph - N/A   Clear
5:53 AM 37.0 °F 34.5 °F 30.0 °F 76% 30.05 in 7.0 mi East 3.5 mph - N/A   Clear
6:53 AM 37.0 °F 34.5 °F 30.9 °F 79% 30.07 in 7.0 mi East 3.5 mph - N/A   Clear
7:53 AM 36.0 °F - 30.0 °F 79% 30.09 in 6.0 mi Calm Calm - N/A   Haze
8:53 AM 41.0 °F - 30.9 °F 67% 30.09 in 9.0 mi Calm Calm - N/A   Clear
9:53 AM 46.0 °F 43.9 °F 32.0 °F 58% 30.09 in 7.0 mi ESE 4.6 mph - N/A   Clear
10:53 AM 50.0 °F - 35.1 °F 57% 30.07 in 5.0 mi SSE 4.6 mph - N/A   Haze
11:53 AM 55.0 °F - 37.0 °F 51% 30.03 in 4.0 mi South 3.5 mph - N/A   Haze
12:53 PM 57.9 °F - 37.0 °F 46% 30.00 in 4.0 mi Variable 3.5 mph - N/A   Haze
1:53 PM 60.1 °F - 36.0 °F 41% 29.98 in 4.0 mi West 3.5 mph - N/A   Haze
2:53 PM 60.1 °F - 34.0 °F 38% 29.97 in 4.0 mi NW 3.5 mph - N/A   Haze
3:53 PM 60.1 °F - 34.0 °F 38% 29.97 in 4.0 mi Calm Calm - N/A   Haze
4:53 PM 57.0 °F - 35.1 °F 44% 29.97 in 4.0 mi Calm Calm - N/A   Haze
5:53 PM 52.0 °F - 34.0 °F 50% 29.97 in 5.0 mi Calm Calm - N/A   Haze
6:53 PM 48.0 °F - 33.1 °F 56% 29.98 in 5.0 mi Calm Calm - N/A   Haze
7:53 PM 46.9 °F - 33.1 °F 59% 29.99 in 5.0 mi Calm Calm - N/A   Haze
8:53 PM 44.1 °F - 33.1 °F 65% 29.99 in 4.0 mi Calm Calm - N/A   Haze
9:53 PM 44.1 °F - 34.0 °F 68% 30.00 in 4.0 mi Calm Calm - N/A   Haze
10:53 PM 39.9 °F 36.7 °F 30.9 °F 70% 30.00 in 4.0 mi SE 4.6 mph - N/A   Haze
11:53 PM 41.0 °F 39.0 °F 32.0 °F 70% 30.00 in 4.0 mi ENE 3.5 mph - N/A   Haze